| time (UTC) | temp C | wind direction | speed KPH | gust KPH | rain 1hr cm | rain 24hr cm | rain mn cm | humidity % | barometer mb |
| 20260507000520 | 19 | 222 | 1.6 | 9.7 | 0.00 | 0.15 | 0.15 | 84 | 1009.4 |
| 20260507000016 | 19 | 181 | 3.2 | 3.2 | 0.00 | 0.15 | 0.15 | 83 | 1009.3 |
| 20260506235514 | 20 | 136 | 0.0 | 4.8 | 0.00 | 0.15 | 0.15 | 83 | 1009.2 |
| 20260506235009 | 20 | 182 | 1.6 | 4.8 | 0.00 | 0.15 | 0.15 | 83 | 1009.0 |
| 20260506234507 | 20 | 209 | 0.0 | 1.6 | 0.00 | 0.15 | 0.15 | 82 | 1009.1 |
| 20260506234004 | 20 | 213 | 0.0 | 4.8 | 0.00 | 0.15 | 0.15 | 82 | 1009.2 |
| 20260506233500 | 20 | 195 | 0.0 | 3.2 | 0.00 | 0.15 | 0.15 | 81 | 1009.1 |
| 20260506232957 | 20 | 191 | 0.0 | 3.2 | 0.00 | 0.15 | 0.15 | 81 | 1009.3 |
| 20260506232454 | 20 | 189 | 0.0 | 4.8 | 0.00 | 0.15 | 0.15 | 81 | 1009.3 |
| 20260506231949 | 20 | 196 | 6.4 | 6.4 | 0.00 | 0.15 | 0.15 | 80 | 1009.3 |
| 20260506231447 | 20 | 213 | 3.2 | 4.8 | 0.00 | 0.15 | 0.15 | 80 | 1009.2 |
| 20260506230944 | 20 | 162 | 1.6 | 3.2 | 0.00 | 0.15 | 0.15 | 80 | 1009.3 |
| 20260506230440 | 20 | 190 | 1.6 | 4.8 | 0.00 | 0.15 | 0.15 | 80 | 1009.0 |
| 20260506225937 | 20 | 147 | 3.2 | 3.2 | 0.00 | 0.15 | 0.15 | 80 | 1009.2 |
| 20260506225434 | 20 | 213 | 1.6 | 3.2 | 0.00 | 0.15 | 0.15 | 79 | 1009.2 |
| 20260506224931 | 20 | 207 | 6.4 | 9.7 | 0.00 | 0.15 | 0.15 | 79 | 1009.1 |
| 20260506224428 | 20 | 199 | 1.6 | 6.4 | 0.00 | 0.15 | 0.15 | 78 | 1009.2 |
| 20260506223925 | 20 | 275 | 1.6 | 3.2 | 0.00 | 0.15 | 0.15 | 78 | 1009.1 |
| 20260506223420 | 21 | 294 | 1.6 | 6.4 | 0.00 | 0.15 | 0.15 | 78 | 1009.1 |
| 20260506222918 | 21 | 168 | 0.0 | 4.8 | 0.00 | 0.15 | 0.15 | 78 | 1009.1 |
| 20260506222414 | 21 | 247 | 4.8 | 4.8 | 0.00 | 0.15 | 0.15 | 77 | 1009.3 |
| 20260506221911 | 20 | 138 | 4.8 | 4.8 | 0.00 | 0.15 | 0.15 | 78 | 1009.4 |
| 20260506221408 | 20 | 185 | 3.2 | 4.8 | 0.00 | 0.15 | 0.15 | 78 | 1009.1 |
| 20260506220906 | 21 | 136 | 8.0 | 9.7 | 0.00 | 0.15 | 0.15 | 77 | 1009.0 |
| 20260506220401 | 21 | 189 | 1.6 | 6.4 | 0.00 | 0.15 | 0.15 | 76 | 1009.0 |
| 20260506215858 | 21 | 137 | 3.2 | 9.7 | 0.00 | 0.15 | 0.15 | 76 | 1009.0 |
| 20260506215354 | 21 | 190 | 4.8 | 16.1 | 0.00 | 0.15 | 0.15 | 77 | 1009.1 |
| 20260506214850 | 21 | 227 | 1.6 | 6.4 | 0.00 | 0.15 | 0.15 | 77 | 1009.1 |
| 20260506214347 | 21 | 153 | 4.8 | 12.9 | 0.00 | 0.15 | 0.15 | 76 | 1009.1 |
| 20260506213845 | 22 | 223 | 9.7 | 12.9 | 0.00 | 0.15 | 0.15 | 74 | 1009.1 |
| 20260506213342 | 22 | 139 | 3.2 | 4.8 | 0.00 | 0.15 | 0.15 | 74 | 1008.8 |
| 20260506212839 | 22 | 232 | 1.6 | 3.2 | 0.00 | 0.15 | 0.15 | 73 | 1008.6 |
| 20260506212335 | 21 | 206 | 1.6 | 3.2 | 0.00 | 0.15 | 0.15 | 75 | 1008.9 |
| 20260506211830 | 21 | 278 | 8.0 | 11.3 | 0.00 | 0.15 | 0.15 | 75 | 1009.0 |
| 20260506211326 | 21 | 171 | 3.2 | 3.2 | 0.00 | 0.15 | 0.15 | 74 | 1008.8 |
| 20260506210824 | 22 | 304 | 3.2 | 11.3 | 0.00 | 0.15 | 0.15 | 74 | 1008.8 |
| 20260506210321 | 21 | 181 | 1.6 | 9.7 | 0.00 | 0.15 | 0.15 | 75 | 1009.0 |
| 20260506205818 | 21 | 180 | 3.2 | 11.3 | 0.00 | 0.15 | 0.15 | 74 | 1008.6 |
| 20260506205314 | 21 | 274 | 9.7 | 14.5 | 0.00 | 0.15 | 0.15 | 73 | 1008.7 |
| 20260506204810 | 21 | 304 | 1.6 | 6.4 | 0.00 | 0.15 | 0.15 | 75 | 1008.6 |
| 20260506204308 | 21 | 278 | 6.4 | 12.9 | 0.00 | 0.15 | 0.15 | 75 | 1009.0 |
| 20260506203806 | 22 | 236 | 6.4 | 9.7 | 0.00 | 0.15 | 0.15 | 74 | 1008.7 |
| 20260506203303 | 21 | 282 | 4.8 | 6.4 | 0.00 | 0.15 | 0.15 | 74 | 1008.6 |
| 20260506202759 | 21 | 297 | 4.8 | 6.4 | 0.00 | 0.15 | 0.15 | 75 | 1008.6 |
| 20260506202256 | 21 | 324 | 6.4 | 14.5 | 0.00 | 0.15 | 0.15 | 76 | 1008.7 |
| 20260506201753 | 21 | 215 | 3.2 | 16.1 | 0.00 | 0.15 | 0.15 | 74 | 1008.6 |
| 20260506201250 | 20 | 260 | 6.4 | 11.3 | 0.00 | 0.15 | 0.15 | 76 | 1008.6 |
| 20260506200747 | 20 | 253 | 4.8 | 9.7 | 0.00 | 0.15 | 0.15 | 76 | 1008.5 |
| 20260506200243 | 21 | 261 | 3.2 | 9.7 | 0.00 | 0.15 | 0.15 | 76 | 1008.7 |
| 20260506195739 | 20 | 200 | 6.4 | 6.4 | 0.00 | 0.15 | 0.15 | 77 | 1008.8 |
| 20260506195236 | 21 | 204 | 3.2 | 6.4 | 0.00 | 0.15 | 0.15 | 78 | 1008.8 |
| 20260506194733 | 20 | 272 | 6.4 | 6.4 | 0.00 | 0.15 | 0.15 | 79 | 1008.7 |
| 20260506194230 | 20 | 175 | 1.6 | 6.4 | 0.00 | 0.15 | 0.15 | 81 | 1008.8 |
| 20260506193728 | 19 | 194 | 8.0 | 12.9 | 0.00 | 0.15 | 0.15 | 81 | 1008.9 |
| 20260506193224 | 19 | 189 | 6.4 | 12.9 | 0.00 | 0.15 | 0.15 | 81 | 1008.9 |
| 20260506192721 | 19 | 137 | 4.8 | 4.8 | 0.00 | 0.15 | 0.15 | 81 | 1009.0 |
| 20260506192218 | 19 | 118 | 4.8 | 12.9 | 0.00 | 0.15 | 0.15 | 82 | 1008.8 |
| 20260506191714 | 19 | 216 | 3.2 | 14.5 | 0.00 | 0.15 | 0.15 | 82 | 1009.3 |
| 20260506191210 | 19 | 170 | 4.8 | 12.9 | 0.00 | 0.15 | 0.15 | 82 | 1009.2 |
| 20260506190708 | 18 | 311 | 8.0 | 9.7 | 0.00 | 0.15 | 0.15 | 83 | 1009.2 |
| 20260506190204 | 18 | 240 | 4.8 | 14.5 | 0.00 | 0.15 | 0.15 | 83 | 1009.3 |
| 20260506185702 | 18 | 216 | 3.2 | 6.4 | 0.00 | 0.15 | 0.15 | 83 | 1009.4 |
| 20260506185158 | 18 | 218 | 3.2 | 14.5 | 0.00 | 0.15 | 0.15 | 83 | 1009.5 |
| 20260506184656 | 18 | 184 | 6.4 | 12.9 | 0.00 | 0.15 | 0.15 | 83 | 1009.4 |
| 20260506184153 | 18 | 192 | 3.2 | 6.4 | 0.00 | 0.15 | 0.15 | 83 | 1009.6 |
| 20260506183650 | 18 | 186 | 6.4 | 17.7 | 0.00 | 0.15 | 0.15 | 83 | 1009.5 |
| 20260506183145 | 18 | 245 | 1.6 | 16.1 | 0.00 | 0.15 | 0.15 | 83 | 1009.5 |
| 20260506182643 | 18 | 307 | 4.8 | 16.1 | 0.00 | 0.15 | 0.15 | 83 | 1009.6 |
| 20260506182139 | 18 | 195 | 6.4 | 9.7 | 0.00 | 0.15 | 0.15 | 83 | 1009.7 |
| 20260506181638 | 18 | 280 | 3.2 | 9.7 | 0.00 | 0.15 | 0.15 | 84 | 1009.4 |
| 20260506181135 | 18 | 191 | 3.2 | 6.4 | 0.00 | 0.15 | 0.15 | 84 | 1009.6 |
| 20260506180631 | 18 | 259 | 6.4 | 9.7 | 0.00 | 0.15 | 0.15 | 85 | 1009.8 |
| 20260506180128 | 18 | 163 | 1.6 | 9.7 | 0.00 | 0.15 | 0.15 | 85 | 1009.9 |
| 20260506175624 | 18 | 112 | 6.4 | 16.1 | 0.00 | 0.15 | 0.15 | 84 | 1009.7 |
| 20260506175120 | 18 | 175 | 3.2 | 12.9 | 0.00 | 0.15 | 0.15 | 85 | 1009.8 |
| 20260506174619 | 18 | 163 | 1.6 | 11.3 | 0.00 | 0.15 | 0.15 | 85 | 1009.8 |
| 20260506174115 | 18 | 199 | 4.8 | 11.3 | 0.00 | 0.15 | 0.15 | 86 | 1009.8 |
| 20260506173613 | 18 | 155 | 6.4 | 6.4 | 0.00 | 0.15 | 0.15 | 86 | 1009.8 |
| 20260506173110 | 18 | 182 | 3.2 | 6.4 | 0.00 | 0.15 | 0.15 | 86 | 1009.9 |
| 20260506172607 | 17 | 185 | 1.6 | 4.8 | 0.00 | 0.15 | 0.15 | 87 | 1009.9 |
| 20260506172103 | 17 | 244 | 4.8 | 12.9 | 0.00 | 0.15 | 0.15 | 88 | 1010.0 |
| 20260506171601 | 17 | 214 | 3.2 | 6.4 | 0.00 | 0.15 | 0.15 | 88 | 1010.2 |
| 20260506171058 | 17 | 222 | 3.2 | 20.9 | 0.00 | 0.15 | 0.15 | 88 | 1009.9 |
| 20260506170556 | 17 | 185 | 4.8 | 12.9 | 0.00 | 0.15 | 0.15 | 88 | 1010.2 |
| 20260506170053 | 17 | 230 | 8.0 | 14.5 | 0.00 | 0.15 | 0.15 | 88 | 1010.2 |
| 20260506165551 | 17 | 159 | 6.4 | 9.7 | 0.00 | 0.15 | 0.15 | 89 | 1009.8 |
| 20260506165042 | 17 | 147 | 3.2 | 12.9 | 0.00 | 0.15 | 0.15 | 89 | 1010.0 |
| 20260506164539 | 17 | 210 | 9.7 | 12.9 | 0.00 | 0.15 | 0.15 | 89 | 1010.3 |
| 20260506164036 | 17 | 261 | 6.4 | 12.9 | 0.00 | 0.15 | 0.15 | 90 | 1010.1 |
| 20260506163532 | 17 | 198 | 4.8 | 12.9 | 0.00 | 0.15 | 0.15 | 90 | 1010.4 |
| 20260506163028 | 17 | 112 | 6.4 | 12.9 | 0.00 | 0.15 | 0.15 | 90 | 1010.3 |
| 20260506162524 | 17 | 199 | 3.2 | 12.9 | 0.00 | 0.15 | 0.15 | 91 | 1010.6 |
| 20260506162021 | 17 | 199 | 1.6 | 9.7 | 0.00 | 0.15 | 0.15 | 91 | 1010.4 |
| 20260506161519 | 17 | 130 | 4.8 | 11.3 | 0.00 | 0.15 | 0.15 | 91 | 1010.4 |
| 20260506161015 | 17 | 89 | 4.8 | 6.4 | 0.13 | 0.15 | 0.15 | 91 | 1010.4 |
| 20260506160513 | 17 | 283 | 3.2 | 14.5 | 0.13 | 0.15 | 0.15 | 91 | 1010.6 |
| 20260506160010 | 17 | 134 | 8.0 | 11.3 | 0.18 | 0.13 | 0.13 | 90 | 1010.9 |
| 20260506155508 | 17 | 155 | 4.8 | 9.7 | 0.18 | 0.13 | 0.13 | 89 | 1010.8 |
| 20260506153640 | 17 | 236 | 6.4 | 11.3 | 0.30 | 0.10 | 0.10 | 88 | 1011.4 |
| 20260506153137 | 17 | 180 | 1.6 | 9.7 | 0.18 | 0.08 | 0.08 | 87 | 1011.4 |
| 20260506152634 | 17 | 283 | 3.2 | 11.3 | 0.00 | 0.05 | 0.05 | 85 | 1011.1 |
| 20260506152131 | 17 | 213 | 9.7 | 12.9 | 0.00 | 0.05 | 0.05 | 84 | 1011.4 |
| 20260506151630 | 17 | 252 | 3.2 | 14.5 | 0.18 | 0.05 | 0.05 | 84 | 1011.3 |
| 20260506151126 | 17 | 248 | 1.6 | 11.3 | 0.30 | 0.05 | 0.05 | 83 | 1011.1 |
| 20260506150623 | 18 | 208 | 3.2 | 6.4 | 0.13 | 0.03 | 0.03 | 82 | 1011.1 |
| 20260506150120 | 18 | 200 | 4.8 | 11.3 | 0.00 | 0.00 | 0.00 | 78 | 1011.0 |
| 20260506145617 | 18 | 246 | 6.4 | 9.7 | 0.00 | 0.00 | 0.00 | 76 | 1011.0 |
| 20260506145114 | 18 | 144 | 3.2 | 24.1 | 0.00 | 0.00 | 0.00 | 76 | 1011.0 |
| 20260506144611 | 18 | 198 | 6.4 | 17.7 | 0.00 | 0.00 | 0.00 | 75 | 1011.2 |
| 20260506144108 | 19 | 190 | 3.2 | 12.9 | 0.00 | 0.00 | 0.00 | 74 | 1011.1 |
| 20260506143606 | 19 | 131 | 11.3 | 14.5 | 0.00 | 0.00 | 0.00 | 72 | 1011.4 |
| 20260506143104 | 20 | 268 | 1.6 | 12.9 | 0.00 | 0.00 | 0.00 | 71 | 1011.2 |
| 20260506142601 | 20 | 261 | 3.2 | 11.3 | 0.00 | 0.00 | 0.00 | 69 | 1011.4 |
| 20260506142059 | 20 | 286 | 4.8 | 16.1 | 0.00 | 0.00 | 0.00 | 69 | 1011.1 |
| 20260506141557 | 20 | 216 | 4.8 | 11.3 | 0.00 | 0.00 | 0.00 | 70 | 1011.4 |
| 20260506141055 | 20 | 217 | 4.8 | 12.9 | 0.00 | 0.00 | 0.00 | 69 | 1011.3 |
| 20260506140552 | 20 | 153 | 3.2 | 6.4 | 0.00 | 0.00 | 0.00 | 69 | 1011.3 |
| 20260506140049 | 20 | 174 | 6.4 | 16.1 | 0.00 | 0.00 | 0.00 | 67 | 1011.1 |
| 20260506135546 | 20 | 274 | 3.2 | 16.1 | 0.00 | 0.00 | 0.00 | 67 | 1011.0 |
| 20260506135042 | 20 | 211 | 6.4 | 17.7 | 0.00 | 0.00 | 0.00 | 67 | 1011.1 |
| 20260506134539 | 20 | 217 | 9.7 | 16.1 | 0.00 | 0.00 | 0.00 | 67 | 1011.2 |
| 20260506134035 | 20 | 156 | 6.4 | 17.7 | 0.00 | 0.00 | 0.00 | 66 | 1011.0 |
| 20260506133532 | 20 | 118 | 4.8 | 14.5 | 0.00 | 0.00 | 0.00 | 67 | 1010.6 |
| 20260506133029 | 20 | 233 | 8.0 | 14.5 | 0.00 | 0.00 | 0.00 | 67 | 1010.9 |
| 20260506132526 | 20 | 235 | 4.8 | 16.1 | 0.00 | 0.00 | 0.00 | 67 | 1011.1 |
| 20260506132024 | 20 | 202 | 9.7 | 20.9 | 0.00 | 0.00 | 0.00 | 68 | 1011.1 |
| 20260506131520 | 20 | 186 | 4.8 | 12.9 | 0.00 | 0.00 | 0.00 | 68 | 1011.3 |
| 20260506131017 | 19 | 173 | 6.4 | 16.1 | 0.00 | 0.00 | 0.00 | 69 | 1011.1 |
| 20260506130514 | 19 | 188 | 4.8 | 12.9 | 0.00 | 0.00 | 0.00 | 70 | 1011.1 |
| 20260506130011 | 19 | 143 | 4.8 | 14.5 | 0.00 | 0.00 | 0.00 | 70 | 1011.1 |
| 20260506125510 | 19 | 177 | 9.7 | 14.5 | 0.00 | 0.00 | 0.00 | 70 | 1011.3 |
| 20260506125007 | 19 | 308 | 1.6 | 9.7 | 0.00 | 0.00 | 0.00 | 71 | 1011.5 |
| 20260506124505 | 19 | 222 | 4.8 | 6.4 | 0.00 | 0.00 | 0.00 | 71 | 1011.4 |
| 20260506124002 | 19 | 60 | 6.4 | 14.5 | 0.00 | 0.00 | 0.00 | 71 | 1011.5 |
| 20260506123500 | 19 | 196 | 4.8 | 16.1 | 0.00 | 0.00 | 0.00 | 71 | 1011.5 |
| 20260506122958 | 19 | 197 | 3.2 | 4.8 | 0.00 | 0.00 | 0.00 | 72 | 1011.3 |
| 20260506122454 | 19 | 220 | 3.2 | 9.7 | 0.00 | 0.00 | 0.00 | 72 | 1011.4 |
| 20260506121953 | 19 | 133 | 3.2 | 14.5 | 0.00 | 0.00 | 0.00 | 72 | 1011.3 |
| 20260506121449 | 19 | 96 | 4.8 | 12.9 | 0.00 | 0.00 | 0.00 | 72 | 1011.1 |
| 20260506120946 | 19 | 107 | 3.2 | 6.4 | 0.00 | 0.00 | 0.00 | 73 | 1011.1 |
| 20260506120443 | 18 | 157 | 3.2 | 9.7 | 0.00 | 0.00 | 0.00 | 73 | 1011.1 |
| 20260506115941 | 18 | 165 | 6.4 | 16.1 | 0.00 | 0.00 | 0.00 | 74 | 1011.2 |
| 20260506115439 | 18 | 120 | 3.2 | 6.4 | 0.00 | 0.00 | 0.00 | 74 | 1011.1 |
| 20260506114937 | 18 | 161 | 9.7 | 16.1 | 0.00 | 0.00 | 0.00 | 74 | 1010.9 |
| 20260506114434 | 18 | 117 | 4.8 | 6.4 | 0.00 | 0.00 | 0.00 | 74 | 1010.9 |
| 20260506113933 | 18 | 240 | 3.2 | 16.1 | 0.00 | 0.00 | 0.00 | 74 | 1010.9 |
| 20260506113430 | 18 | 190 | 6.4 | 11.3 | 0.00 | 0.00 | 0.00 | 75 | 1011.1 |
| 20260506112926 | 18 | 128 | 4.8 | 9.7 | 0.00 | 0.00 | 0.00 | 75 | 1010.7 |
| 20260506112424 | 18 | 112 | 11.3 | 16.1 | 0.00 | 0.00 | 0.00 | 74 | 1010.9 |
| 20260506111921 | 18 | 166 | 6.4 | 11.3 | 0.00 | 0.00 | 0.00 | 74 | 1010.8 |
| 20260506111420 | 18 | 202 | 1.6 | 9.7 | 0.00 | 0.00 | 0.00 | 75 | 1010.8 |
| 20260506110916 | 18 | 158 | 3.2 | 9.7 | 0.00 | 0.00 | 0.00 | 75 | 1010.9 |
| 20260506110414 | 18 | 151 | 6.4 | 11.3 | 0.00 | 0.00 | 0.00 | 75 | 1011.0 |
| 20260506105911 | 18 | 180 | 1.6 | 14.5 | 0.00 | 0.00 | 0.00 | 75 | 1010.8 |
| 20260506105407 | 18 | 195 | 4.8 | 12.9 | 0.00 | 0.00 | 0.00 | 76 | 1010.7 |
| 20260506104904 | 18 | 134 | 6.4 | 12.9 | 0.00 | 0.00 | 0.00 | 75 | 1010.8 |
| 20260506104402 | 18 | 173 | 4.8 | 11.3 | 0.00 | 0.00 | 0.00 | 75 | 1010.8 |
| 20260506103900 | 18 | 102 | 4.8 | 9.7 | 0.00 | 0.00 | 0.00 | 76 | 1010.6 |
| 20260506103357 | 18 | 240 | 0.0 | 9.7 | 0.00 | 0.00 | 0.00 | 76 | 1010.8 |
| 20260506102854 | 18 | 128 | 3.2 | 6.4 | 0.00 | 0.00 | 0.00 | 76 | 1010.9 |
| 20260506102352 | 18 | 144 | 8.0 | 12.9 | 0.00 | 0.00 | 0.00 | 77 | 1010.9 |
| 20260506101849 | 18 | 137 | 3.2 | 6.4 | 0.00 | 0.00 | 0.00 | 77 | 1011.0 |
| 20260506101345 | 18 | 198 | 3.2 | 11.3 | 0.00 | 0.00 | 0.00 | 77 | 1010.9 |
| 20260506100843 | 18 | 143 | 6.4 | 12.9 | 0.00 | 0.00 | 0.00 | 77 | 1010.9 |
| 20260506100341 | 18 | 135 | 9.7 | 12.9 | 0.00 | 0.00 | 0.00 | 77 | 1010.9 |
| 20260506095839 | 18 | 156 | 3.2 | 9.7 | 0.00 | 0.00 | 0.00 | 77 | 1010.7 |
| 20260506095336 | 18 | 136 | 4.8 | 11.3 | 0.00 | 0.00 | 0.00 | 77 | 1010.9 |
| 20260506094833 | 17 | 232 | 1.6 | 14.5 | 0.00 | 0.00 | 0.00 | 77 | 1010.6 |
| 20260506094332 | 17 | 148 | 3.2 | 4.8 | 0.00 | 0.00 | 0.00 | 78 | 1010.6 |
| 20260506093829 | 17 | 160 | 3.2 | 6.4 | 0.00 | 0.00 | 0.00 | 78 | 1011.0 |
| 20260506093326 | 18 | 234 | 1.6 | 3.2 | 0.00 | 0.00 | 0.00 | 77 | 1011.0 |
| 20260506092824 | 18 | 179 | 4.8 | 9.7 | 0.00 | 0.00 | 0.00 | 77 | 1010.9 |
| 20260506092321 | 18 | 129 | 3.2 | 9.7 | 0.00 | 0.00 | 0.00 | 77 | 1010.7 |
| 20260506091818 | 18 | 176 | 6.4 | 12.9 | 0.00 | 0.00 | 0.00 | 77 | 1010.9 |
| 20260506091315 | 18 | 225 | 3.2 | 9.7 | 0.00 | 0.00 | 0.00 | 76 | 1010.8 |
| 20260506090813 | 18 | 199 | 1.6 | 4.8 | 0.00 | 0.00 | 0.00 | 76 | 1010.9 |
| 20260506090310 | 18 | 191 | 4.8 | 11.3 | 0.00 | 0.00 | 0.00 | 76 | 1011.0 |
| 20260506085807 | 18 | 192 | 0.0 | 1.6 | 0.00 | 0.00 | 0.00 | 76 | 1010.9 |
| 20260506085305 | 18 | 187 | 4.8 | 14.5 | 0.00 | 0.00 | 0.00 | 75 | 1010.8 |
| 20260506084800 | 18 | 158 | 6.4 | 11.3 | 0.00 | 0.00 | 0.00 | 75 | 1010.8 |
| 20260506084256 | 18 | 153 | 1.6 | 12.9 | 0.00 | 0.00 | 0.00 | 75 | 1010.7 |
| 20260506083753 | 18 | 184 | 3.2 | 9.7 | 0.00 | 0.00 | 0.00 | 75 | 1010.7 |
| 20260506083251 | 18 | 120 | 6.4 | 14.5 | 0.00 | 0.00 | 0.00 | 74 | 1010.9 |
| 20260506082748 | 19 | 190 | 3.2 | 14.5 | 0.00 | 0.00 | 0.00 | 74 | 1010.9 |
| 20260506082243 | 19 | 144 | 1.6 | 6.4 | 0.00 | 0.00 | 0.00 | 74 | 1011.0 |
| 20260506081741 | 19 | 196 | 4.8 | 6.4 | 0.00 | 0.00 | 0.00 | 73 | 1011.1 |
| 20260506081238 | 19 | 138 | 3.2 | 11.3 | 0.00 | 0.00 | 0.00 | 73 | 1011.1 |
| 20260506080737 | 19 | 153 | 3.2 | 12.9 | 0.00 | 0.00 | 0.00 | 73 | 1011.1 |
| 20260506080233 | 19 | 234 | 4.8 | 22.5 | 0.00 | 0.00 | 0.00 | 72 | 1011.2 |
| 20260506073217 | 19 | 188 | 6.4 | 14.5 | 0.00 | 0.00 | 0.00 | 73 | 1011.1 |
| 20260506072713 | 18 | 197 | 3.2 | 4.8 | 0.00 | 0.00 | 0.00 | 75 | 1011.1 |
| 20260506072212 | 19 | 220 | 1.6 | 4.8 | 0.00 | 0.00 | 0.00 | 74 | 1011.3 |
| 20260506071708 | 19 | 160 | 3.2 | 4.8 | 0.00 | 0.00 | 0.00 | 74 | 1011.1 |
| 20260506071206 | 18 | 206 | 0.0 | 1.6 | 0.00 | 0.00 | 0.00 | 75 | 1011.2 |
| 20260506070703 | 18 | 175 | 3.2 | 3.2 | 0.00 | 0.00 | 0.00 | 75 | 1011.1 |
| 20260506070200 | 18 | 254 | 0.0 | 3.2 | 0.00 | 0.00 | 0.00 | 75 | 1011.1 |
| 20260506062137 | 19 | 265 | 4.8 | 9.7 | 0.00 | 0.00 | 0.00 | 73 | 1011.4 |
| 20260506061632 | 20 | 234 | 3.2 | 11.3 | 0.00 | 0.00 | 0.00 | 72 | 1011.5 |
| 20260506061131 | 20 | 150 | 3.2 | 4.8 | 0.00 | 0.00 | 0.00 | 72 | 1011.7 |
| 20260506060629 | 20 | 249 | 1.6 | 3.2 | 0.00 | 0.00 | 0.00 | 72 | 1011.5 |
| 20260506060125 | 20 | 194 | 4.8 | 9.7 | 0.00 | 0.00 | 0.00 | 71 | 1011.5 |
| 20260506051057 | 20 | 206 | 1.6 | 4.8 | 0.00 | 0.00 | 0.00 | 67 | 1011.8 |
| 20260506050555 | 20 | 134 | 1.6 | 9.7 | 0.00 | 0.00 | 0.00 | 66 | 1012.0 |
| 20260506045046 | 21 | 196 | 9.7 | 14.5 | 0.00 | 0.00 | 0.00 | 65 | 1011.8 |
| 20260506044544 | 21 | 185 | 3.2 | 14.5 | 0.00 | 0.00 | 0.00 | 64 | 1011.8 |
| 20260506044040 | 21 | 150 | 3.2 | 9.7 | 0.00 | 0.00 | 0.00 | 63 | 1011.9 |
| 20260506043537 | 21 | 127 | 3.2 | 11.3 | 0.00 | 0.00 | 0.00 | 63 | 1011.8 |
| 20260506043036 | 21 | 179 | 0.0 | 12.9 | 0.00 | 0.00 | 0.00 | 62 | 1011.9 |
| 20260506042535 | 21 | 182 | 4.8 | 11.3 | 0.00 | 0.00 | 0.00 | 62 | 1011.8 |
| 20260506042032 | 21 | 92 | 1.6 | 4.8 | 0.00 | 0.00 | 0.00 | 62 | 1011.9 |
| 20260506041531 | 21 | 139 | 11.3 | 14.5 | 0.00 | 0.00 | 0.00 | 61 | 1011.7 |
| 20260506041027 | 21 | 280 | 3.2 | 4.8 | 0.00 | 0.00 | 0.00 | 60 | 1011.9 |
| 20260506040525 | 21 | 132 | 8.0 | 14.5 | 0.00 | 0.00 | 0.00 | 60 | 1011.9 |
| 20260506040020 | 21 | 198 | 1.6 | 14.5 | 0.00 | 0.00 | 0.00 | 60 | 1011.7 |
| 20260506035518 | 21 | 208 | 6.4 | 11.3 | 0.00 | 0.00 | 0.00 | 59 | 1011.8 |
| 20260506035014 | 21 | 138 | 0.0 | 4.8 | 0.00 | 0.00 | 0.00 | 60 | 1011.6 |
| 20260506034512 | 21 | 123 | 0.0 | 3.2 | 0.00 | 0.00 | 0.00 | 60 | 1011.7 |
| 20260506034009 | 21 | 161 | 4.8 | 14.5 | 0.00 | 0.00 | 0.00 | 59 | 1011.7 |
| 20260506033506 | 21 | 126 | 8.0 | 12.9 | 0.00 | 0.00 | 0.00 | 59 | 1011.8 |
| 20260506033002 | 21 | 92 | 6.4 | 12.9 | 0.00 | 0.00 | 0.00 | 58 | 1011.7 |
| 20260506032500 | 21 | 148 | 3.2 | 9.7 | 0.00 | 0.00 | 0.00 | 58 | 1011.6 |
| 20260506031956 | 21 | 158 | 3.2 | 11.3 | 0.00 | 0.00 | 0.00 | 58 | 1011.5 |
| 20260506031454 | 21 | 153 | 3.2 | 4.8 | 0.00 | 0.00 | 0.00 | 58 | 1011.6 |
| 20260506030951 | 21 | 127 | 3.2 | 11.3 | 0.00 | 0.00 | 0.00 | 57 | 1011.6 |
| 20260506030449 | 21 | 221 | 4.8 | 11.3 | 0.00 | 0.00 | 0.00 | 57 | 1011.7 |
| 20260506025946 | 21 | 172 | 6.4 | 12.9 | 0.00 | 0.00 | 0.00 | 57 | 1011.7 |
| 20260506025443 | 21 | 209 | 8.0 | 14.5 | 0.00 | 0.00 | 0.00 | 57 | 1011.8 |
| 20260506024939 | 21 | 154 | 6.4 | 9.7 | 0.00 | 0.00 | 0.00 | 57 | 1011.8 |
| 20260506024436 | 21 | 88 | 3.2 | 14.5 | 0.00 | 0.00 | 0.00 | 56 | 1011.9 |
| 20260506023932 | 21 | 135 | 4.8 | 6.4 | 0.00 | 0.00 | 0.00 | 57 | 1011.9 |
| 20260506023429 | 22 | 129 | 4.8 | 6.4 | 0.00 | 0.00 | 0.00 | 56 | 1012.1 |
| 20260506022926 | 22 | 161 | 6.4 | 16.1 | 0.00 | 0.00 | 0.00 | 55 | 1011.9 |
| 20260506022424 | 22 | 122 | 6.4 | 11.3 | 0.00 | 0.00 | 0.00 | 55 | 1011.9 |
| 20260506021921 | 22 | 205 | 6.4 | 9.7 | 0.00 | 0.00 | 0.00 | 56 | 1012.0 |
| 20260506021418 | 22 | 169 | 4.8 | 9.7 | 0.00 | 0.00 | 0.00 | 55 | 1011.7 |
| 20260506020915 | 22 | 176 | 6.4 | 9.7 | 0.00 | 0.00 | 0.00 | 55 | 1012.0 |
| 20260506020413 | 22 | 148 | 3.2 | 6.4 | 0.00 | 0.00 | 0.00 | 55 | 1011.8 |
| 20260506015910 | 22 | 151 | 1.6 | 4.8 | 0.00 | 0.00 | 0.00 | 55 | 1011.7 |
| 20260506015408 | 22 | 157 | 8.0 | 14.5 | 0.00 | 0.00 | 0.00 | 53 | 1011.7 |
| 20260506014904 | 22 | 167 | 3.2 | 9.7 | 0.00 | 0.00 | 0.00 | 53 | 1011.6 |
| 20260506014401 | 22 | 200 | 1.6 | 11.3 | 0.00 | 0.00 | 0.00 | 53 | 1011.5 |
| 20260506013858 | 22 | 181 | 6.4 | 11.3 | 0.00 | 0.00 | 0.00 | 53 | 1011.5 |
| 20260506013356 | 22 | 126 | 6.4 | 6.4 | 0.00 | 0.00 | 0.00 | 53 | 1011.6 |
| 20260506012851 | 22 | 148 | 1.6 | 6.4 | 0.00 | 0.00 | 0.00 | 52 | 1011.4 |
| 20260506012348 | 22 | 128 | 1.6 | 6.4 | 0.00 | 0.00 | 0.00 | 52 | 1011.4 |
| 20260506011846 | 22 | 171 | 6.4 | 9.7 | 0.00 | 0.00 | 0.00 | 51 | 1011.2 |
| 20260506011342 | 23 | 160 | 1.6 | 11.3 | 0.00 | 0.00 | 0.00 | 51 | 1011.2 |
| 20260506010840 | 23 | 172 | 6.4 | 9.7 | 0.00 | 0.00 | 0.00 | 50 | 1011.0 |
| 20260506010338 | 23 | 155 | 1.6 | 11.3 | 0.00 | 0.00 | 0.00 | 50 | 1011.0 |
| 20260506005834 | 23 | 161 | 8.0 | 11.3 | 0.00 | 0.00 | 0.00 | 49 | 1011.1 |
| 20260506005331 | 23 | 145 | 11.3 | 20.9 | 0.00 | 0.00 | 0.00 | 48 | 1011.1 |
| 20260506004827 | 23 | 127 | 9.7 | 14.5 | 0.00 | 0.00 | 0.00 | 48 | 1011.1 |
| 20260506004325 | 23 | 142 | 8.0 | 16.1 | 0.00 | 0.00 | 0.00 | 48 | 1010.9 |
| 20260506003821 | 23 | 106 | 8.0 | 9.7 | 0.00 | 0.00 | 0.00 | 48 | 1011.0 |
| 20260506003317 | 23 | 135 | 4.8 | 9.7 | 0.00 | 0.00 | 0.00 | 47 | 1010.9 |
| 20260506002814 | 23 | 192 | 6.4 | 11.3 | 0.00 | 0.00 | 0.00 | 47 | 1010.8 |
| 20260506002310 | 23 | 131 | 11.3 | 14.5 | 0.00 | 0.00 | 0.00 | 47 | 1010.7 |
| 20260506001806 | 23 | 133 | 3.2 | 4.8 | 0.00 | 0.00 | 0.00 | 47 | 1010.8 |
| 20260506001303 | 24 | 228 | 0.0 | 6.4 | 0.00 | 0.00 | 0.00 | 46 | 1010.5 |
| 20260506000800 | 23 | 155 | 11.3 | 20.9 | 0.00 | 0.00 | 0.00 | 46 | 1010.4 |